Location: Saluda
(35.2377°N, 82.3468°W)
Time: 04:35:16
(UTC+00:00)

Vanguard 2 Rocket - Pass Details

Date: 08 October 2022
Orbit: 555 x 3321 km, 32.9° (Epoch: 04 December)

Event Time Altitude Azimuth Distance (km) Brightness Sun altitude
Rises 05:25:08 0° 270° (W) 6,749 11.3 -60.6°
Enters shadow 05:28:56 - 270° (W) 5,732 10.9 -60.5°
Reaches altitude 10° 05:30:11 10° 270° (W) 5,384 - -60.5°
Maximum altitude 05:44:46 78° 187° (S) 1,748 - -60.0°
Drops below altitude 10° 05:52:41 10° 102° (ESE) 3,091 - -59.5°
Sets 05:54:51 0° 101° (E) 3,800 - -59.4°
